Cedar City, UT

2:46 AM MST on December 18, 2017 (GMT -0700)
Cedar City Regional

Weather History for KCDC - April, 2013

Change the Weather History Date:

Wednesday, April 10, 2013

  Actual Average Record
Temperature  
Mean Temperature 36 °F 45 °F  
Max Temperature 51 °F 60 °F 77 °F (2014)
Min Temperature 20 °F 30 °F 18 °F (1959)
Degree Days  
Heating Degree Days 29 20  
Month to date heating degree days 194 211  
Since 1 July heating degree days 5474 5545  
Cooling Degree Days 0 0  
Month to date cooling degree days 0 0  
Year to date cooling degree days 0 0  
Moisture  
Dew Point 21 °F    
Average Humidity 57    
Maximum Humidity 84    
Minimum Humidity 30    
Precipitation  
Precipitation 0.00 in 0.05 in 0.50 in (1965)
Month to date precipitation 0.34 0.41  
Year to date precipitation 3.15 3.62  
Sea Level Pressure  
Sea Level Pressure 30.10 in    
Wind  
Wind Speed 10 mph (North)    
Max Wind Speed 22 mph    
Max Gust Speed 31 mph    
Visibility 10 miles    
Events      
T = Trace of Precipitation, MM = Missing Value Source: NWS Daily Summary

Daily Weather History Graph

Daily Weather History Graph

Search for Another Location

Airport or City:

Trip Planner

Search our weather history database for the weather conditions in past years. The results will help you decide how hot, cold, wet, or windy it might be!

Date:

Astronomy

Apr. 10, 2013 Rise Set
Actual Time 7:03 AM MDT 8:03 PM MDT
Civil Twilight 6:37 AM MDT 8:30 PM MDT
Nautical Twilight 6:05 AM MDT 9:02 PM MDT
Astronomical Twilight 5:32 AM MDT 9:35 PM MDT
Moon 7:03 AM MDT (4/10) 8:42 PM MDT (4/10)
Length of Visible Light 13h 53m
Length of Day
12h 59m
New Moon, 0% of the Moon is Illuminated
Apr 10
New Moon
Apr 18
First Quarter
Apr 25
Full
May 2
Last Quarter
May 9
New

Hourly Weather History & Observations

Time (MDT) Temp. Windchill Dew Point Humidity Pressure Visibility Wind Dir Wind Speed Gust Speed Precip Events Conditions
12:53 AM 28.9 °F 23.9 °F 19.9 °F 69% 30.12 in 10.0 mi North 4.6 mph - N/A   Clear
1:53 AM 28.0 °F 20.8 °F 19.9 °F 72% 30.11 in 10.0 mi NE 6.9 mph - N/A   Mostly Cloudy
2:53 AM 28.9 °F 21.1 °F 18.0 °F 64% 30.09 in 10.0 mi NNE 8.1 mph - N/A   Clear
3:53 AM 24.1 °F 14.4 °F 19.0 °F 81% 30.11 in 10.0 mi North 9.2 mph - N/A   Clear
4:53 AM 21.9 °F 14.5 °F 18.0 °F 85% 30.12 in 10.0 mi NNW 5.8 mph - N/A   Clear
5:53 AM 21.9 °F 14.5 °F 17.1 °F 82% 30.13 in 10.0 mi North 5.8 mph - N/A   Clear
6:53 AM 21.0 °F 13.4 °F 16.0 °F 81% 30.15 in 10.0 mi North 5.8 mph - N/A   Clear
7:53 AM 24.1 °F 18.2 °F 19.0 °F 81% 30.15 in 10.0 mi North 4.6 mph - N/A   Clear
8:53 AM 33.1 °F 24.4 °F 21.9 °F 64% 30.14 in 10.0 mi North 11.5 mph - N/A   Clear
9:53 AM 37.9 °F 30.0 °F 21.0 °F 51% 30.14 in 10.0 mi North 12.7 mph 17.3 mph N/A   Clear
10:53 AM 39.9 °F 33.4 °F 21.0 °F 47% 30.13 in 10.0 mi North 10.4 mph - N/A   Clear
12:53 PM 45.0 °F 38.2 °F 24.1 °F 44% 30.12 in 10.0 mi North 15.0 mph 20.7 mph N/A   Clear
1:53 PM 46.9 °F - 21.0 °F 36% 30.11 in 10.0 mi North 17.3 mph 26.5 mph N/A   Clear
2:53 PM 48.0 °F - 21.0 °F 34% 30.10 in 10.0 mi NE 17.3 mph 25.3 mph N/A   Clear
3:53 PM 51.1 °F - 21.9 °F 32% 30.08 in 10.0 mi NNE 16.1 mph 25.3 mph N/A   Clear
4:53 PM 50.0 °F - 21.0 °F 32% 30.07 in 10.0 mi North 11.5 mph 24.2 mph N/A   Clear
5:53 PM 50.0 °F - 21.9 °F 33% 30.06 in 10.0 mi NNE 15.0 mph 20.7 mph N/A   Clear
6:53 PM 50.0 °F - 21.9 °F 33% 30.06 in 10.0 mi NE 13.8 mph 24.2 mph N/A   Clear
7:53 PM 46.9 °F - 24.1 °F 41% 30.04 in 10.0 mi NNE 5.8 mph - N/A   Clear
8:53 PM 37.9 °F 34.4 °F 25.0 °F 60% 30.04 in 10.0 mi WNW 4.6 mph - N/A   Clear
9:53 PM 35.1 °F 32.2 °F 25.0 °F 67% 30.04 in 10.0 mi WSW 3.5 mph - N/A   Clear
10:53 PM 33.1 °F - 25.0 °F 72% 30.06 in 10.0 mi Calm Calm - N/A   Clear
11:53 PM 34.0 °F 28.8 °F 25.0 °F 70% 30.04 in 10.0 mi South 5.8 mph - N/A   Clear